{"data":{"norad_id":81438,"intl_designator":"","name":"UNKNOWN","alt_names":[],"object_type":"UNKNOWN","status":"UNKNOWN","operator":null,"country":null,"launch_date":null,"launch_site_code":null,"launch_vehicle":null,"mission":null,"orbit_class":"UNKNOWN","rcs_meters":null,"size_class":null,"mass_kg":null,"dimensions":null,"purposes":[],"wikipedia_slug":null,"has_3d_model":false,"image_url":null,"decayed_at":null,"tle_current":{"epoch":"2026-05-23T22:49:08.719104Z","epoch_age_seconds":176290,"freshness":"STALE","line1":"1 81438U          26143.95079536  .00002135  00000+0  31071-2 0  9998","line2":"2 81438 100.3360  27.9167 0058341  36.3883 324.1197 13.55586888613917","mean_motion":13.55586888,"eccentricity":0.0058341,"inclination_deg":100.336,"raan_deg":27.9167,"arg_perigee_deg":36.3883,"mean_anomaly_deg":324.1197,"bstar":0.0031071,"rev_number":61391,"period_min":106.22705285417,"perigee_km":1008.4269886226,"apogee_km":1095.1206741856,"semimajor_km":7429.9108314041,"source":"CELESTRAK","updated_at":"2026-05-25T13:38:09.452743Z"}}}